User: anonymous   Login
Location: Ch�tillon
(48.8024°N, 2.2935°E)
Time: 06:44:58
(UTC+00:00)
Language:

Cosmos 1697 Rocket - Orbit

View from above orbital plane
View from above orbital plane
View from above satellite
View from above satellite

Ground track
Ground track

The orbit data is extracted from the following two-line orbital elements,

1 16182U 85097B   22276.70542836 -.00000149  00000-0 -50778-4 0  9998
2 16182  71.0014 257.7479 0007774 347.8377 185.5073 14.16291570909797
Epoch (UTC): 03 October 2022 16:55:49
Eccentricity: 0.0007774
inclination: 71.0014°
perigee height: 832 km
apogee height: 843 km
right ascension of ascending node: 257.7479°
argument of perigee: 347.8377°
revolutions per day: 14.16291570
mean anomaly at epoch: 185.5073°
orbit number at epoch: 90979

The dashed part of the orbit path shows where the satellite is in the earth's shadow,  

DLR